Regional Weather Roundup
Issued by NWS Charleston, SC

Current Version | Previous Version | Text Only | Print | Product List | Glossary On
Versions: 1 2 3 4 5 6 7 8 9 10 11 12 13 14 15 16 17 18 19 20 21 22 23 24 25 26 27 28 29 30 31 32 33 34 35 36 37 38 39 40 41 42 43 44 45 46 47 48 49 50
000
ASUS42 KCHS 060327
RWRCHS

REGIONAL WEATHER ROUNDUP
NATIONAL WEATHER SERVICE CHARLESTON SC
1100 PM EDT SUN JUL 05 2015

NOTE: "FAIR" INDICATES FEW OR NO CLOUDS BELOW 12,000 FEET WITH NO
SIGNIFICANT WEATHER AND/OR OBSTRUCTIONS TO VISIBILITY.

NOT ALL STATIONS ARE QUALITY CONTROLLED BY THE NATIONAL
WEATHER SERVICE. USE DATA WITH CAUTION...ESPECIALLY
DEWPOINT OBSERVATIONS.

SCZ027-030-031-034>040-042>050-060400-
...SOUTHEAST SOUTH CAROLINA...

CITY           SKY/WX    TMP DP  RH WIND       PRES   REMARKS
N CHARLESTON   CLOUDY    75  70  84 S6        30.11R
WATERFRONT PAR   N/A     79  74  85 S6        30.07S
MOUNT PLEASANT FAIR      79  73  83 SW5       30.11R
JOHNS ISLAND   FAIR      77  72  83 CALM      30.12R
PINOPOLIS      NOT AVBL
MONCKS CORNER  FAIR      75  72  88 CALM      30.11R
SUMMERVILLE    FAIR      72  72 100 CALM      30.13R
BEAUFORT MCAS  MOCLDY    73  71  93 S5        30.11R
BEAUFORT ARPT  FAIR      72  72 100 CALM      30.12R
HILTON HEAD IS MOCLDY    73  72  94 CALM      30.13R
WALTERBORO     CLOUDY    70  70 100 SE3       30.12S
ALLENDALE      FAIR      72  72 100 CALM      30.11R

...SOUTHERN MIDLANDS AND PEE DEE...

CITY           SKY/WX    TMP DP  RH WIND       PRES   REMARKS
GEORGETOWN     NOT AVBL
KINGSTREE      NOT AVBL
ORANGEBURG     MOCLDY    72  69  90 CALM      30.11R
BARNWELL       FAIR      72  72 100 CALM      30.12R
AIKEN          NOT AVBL
MANNING        HVY RAIN  73  70  88 CALM      30.11R
COLUMBIA       CLEAR     74  69  85 S3        30.10R
SUMTER         CLEAR     73  69  89 S2        30.10R
FLORENCE       CLOUDY    77  73  87 S3        30.11S
MYRTLE BEACH   MOCLDY    81  72  74 S7        30.13S
N MYRTLE BEACH MOCLDY    81  75  82 S12       30.11F

$$

GAZ063-065-086>088-099>101-113>116-118-119-134>141-150-060400-
...SOUTHEAST GEORGIA...

CITY           SKY/WX    TMP DP  RH WIND       PRES   REMARKS
SAVANNAH ARPT  PTCLDY    71  69  93 SE3       30.11R
HUNTER AAF     PTCLDY    70  70 100 S3        30.10R
FORT STEWART   CLEAR     72  69  89 SW8       30.10R
STATESBORO     NOT AVBL
SYLVANIA       PTCLDY    73  73 100 CALM      30.13R
CLAXTON        FAIR      72  72 100 CALM      30.12S

...CSRA...CENTRAL AND FAR SOUTHEAST GEORGIA...

CITY           SKY/WX    TMP DP  RH WIND       PRES   REMARKS
THOMSON        CLEAR     76  73  87 CALM      30.16S
AUGUSTA-BUSH   CLEAR     73  71  93 CALM      30.10R
AUGUSTA-DANIEL CLEAR     76  71  85 SW7       30.12R
SWAINSBORO     FAIR     N/A N/A N/A SW3       30.14S
VIDALIA        CLEAR     72  72 100 SW5       30.14R
EASTMAN        FAIR      75  75 100 CALM      30.16R
HAZLEHURST     MOCLDY    75  75 100 S3        30.13S
ALMA           CLOUDY    73  70  90 S5        30.14R
WAYCROSS       MOCLDY    74  73  99 CALM      30.14S
JESUP          FAIR      73  72  94 W3        30.14R
BAXLEY         CLOUDY    73  72  94 SW3       30.14S
BRUNSWICK      CLOUDY    72  70  94 W6        30.14R
SAINT SIMONS   MOCLDY    73  71  93 SW5       30.12R

$$

SCZ027-028-034-036>038-045-046-048>050-GAZ119-141-060400-
...LAKE AND SUPPLEMENTAL COASTAL OBSERVATIONS...

STATION/POSITION TIME  TEMP    WIND        PRES    WAVE   SWELL
                       AIR SEA DIR/SP/G            HT/PER HT/PER/DIR
                 (UTC) (F)     (DEG/KT/KT) (MB)    (FT/S) (FT/S/D)
UPR LAKE MARION  NOT AVBL
WINYAH BAY       0200   81     200/  8     1019.0
LAKE MURRAY      0200   76     170/  7/  8 1018.3R
ACE BASIN NERRS  NOT AVBL
FORT PULASKI     0300   74 84  260/  3/  4 1020.3R
SAPELO ISLAND    0300   74     240/  7     1020.0R

$$

ANZ835-935-AMZ111-154-330-350-352-354-370-450-454-472-060400-
...C-MAN AND BUOY OBSERVATIONS...

STATION/POSITION TIME  TEMP    WIND        PRES    WAVE   SWELL
                       AIR SEA DIR/SP/G            HT/PER HT/PER/DIR
                 (UTC) (F)     (DEG/KT/KT) (MB)    (FT/S) (FT/S/D)
BUOY 41004       0250   81 83  220/ 10/ 12 1019.2F   4/ 8   2/ 8
BUOY 41008       0250   76 79  220/  6/  8 1019.5R   2/ 3   2/130/14
FOLLY BEACH CMAN 0300   79     220/  5/  7 1019.3F
CAPERS NEARSHORE 0208   81     220/ 14/ 19 1019.5F
FRIPP NEARSHORE  0200   79     200/  8/ 10 1018.8F


STATION/POSITION TIME  TEMP    WIND        PRES    WAVE   SWELL
                       AIR SEA DIR/SP/G            HT/PER HT/PER/DIR
                 (UTC) (F)     (DEG/KT/KT) (MB)    (FT/S) (FT/S/D)
5E ST. MARYS GA  0221      78                N/A     2/ 8
FRYING PAN BUOY  0250   81 79  200/  8/ 10 1021.1S   3/ 4   2/200/ 4
BUOY 41025       0250   81 81  220/ 16/ 17 1020.8R   3/ 4   2/130/ 8
CAPE LOOKOUT NC  0300   80     210/ 12/ 14 1020.6F
BUOY 41002       0250   81 80  190/  6/  6 1023.2R   3/ 8   3/140/ 8
BUOY 41010       0220   83 84  140/  4/  6 1021.8R
ST AUGUSTINE FL  0300   72 71  170/ 10/ 10 1021.0R


$$


USA.gov is the U.S. government's official web portal to all federal, state and local government web resources and services.